User: anonymous   Login
Location: Vancouver
(49.2500°N, 123.1330°W)
Time: 14:47:06
(UTC-07:00)
Language:

S-56A Canister/Altair - Orbit

View from above orbital plane
View from above orbital plane
View from above satellite
View from above satellite

Ground track
Ground track

The orbit data is extracted from the following two-line orbital elements,

1 00082U 61004B   15242.85857579 -.00000042  00000-0 -89969-5 0  9993
2 00082 038.8610 205.4073 1172016 267.5897 079.0417 12.25708625592722
Epoch (UTC): 30 August 2015 20:36:20
Eccentricity: 0.1172016
inclination: 38.8610°
perigee height: 636 km
apogee height: 2499 km
right ascension of ascending node: 205.4073°
argument of perigee: 267.5897°
revolutions per day: 12.25708625
mean anomaly at epoch: 79.0417°
orbit number at epoch: 59272

The dashed part of the orbit path shows where the satellite is in the earth's shadow,  

DLR